Waarnemingen

Advertentie
Mijn weer
Kempten, Duitsland (10946): temperatuur & dauwpunt: 19.02.2018 02:00:00 - 25.02.2018 02:00:00 (CET)Kempten, Duitsland (10946): temperatuur 5cm & temperatuur -5cm: 19.02.2018 02:00:00 - 25.02.2018 02:00:00 (CET)Kempten, Duitsland (10946): temperatuur -20cm & temperatuur -100cm: 19.02.2018 02:00:00 - 25.02.2018 02:00:00 (CET)Kempten, Duitsland (10946): windsnelheid & windstoten: 19.02.2018 02:00:00 - 25.02.2018 02:00:00 (CET)Kempten, Duitsland (10946): windrichting: 19.02.2018 02:00:00 - 25.02.2018 02:00:00 (CET)Kempten, Duitsland (10946): luchtdruk: 19.02.2018 02:00:00 - 25.02.2018 02:00:00 (CET)Kempten, Duitsland (10946): zicht: 19.02.2018 02:00:00 - 25.02.2018 02:00:00 (CET)Kempten, Duitsland (10946): Zonneschijnduur: 19.02.2018 02:00:00 - 25.02.2018 02:00:00 (CET)Kempten, Duitsland (10946): neerslag: 19.02.2018 02:00:00 - 25.02.2018 02:00:00 (CET)
Datum & Tijd tt [°C] td [°C] tt 5cm [°C] tt -5cm [°C] tt -20cm [°C] tt -100cm [°C] ff [km/u] ff [kn] fx [km/u] fx [kn] dd ppp [hPa] vv [km] sd [min] rr [mm]
25.02.2018 02:00:00 -6,8 -11,5 -6,8 -0,5 0,6 4,0 17 9 36 19 O 1021,2 20 0 0,0
25.02.2018 01:00:00 -6,2 -11,3 -6,3 -0,4 0,6 4,0 15 8 38 21 O 1021,0 19 0 0,0
25.02.2018 00:00:00 -5,8 -11,0 -5,9 -0,3 0,6 4,0 16 9 44 24 O 1020,8 15 0 0,0
24.02.2018 23:00:00 -4,9 -9,8 -5,1 -0,3 0,6 4,0 16 9 44 24 O 1020,4 13 0 0,0
24.02.2018 22:00:00 -4,6 -9,4 -4,7 -0,2 0,6 4,0 18 10 34 18 O 1020,0 11 0 0,0
24.02.2018 21:00:00 -4,3 -9,9 -4,5 -0,2 0,6 4,0 13 7 41 22 ONO 1019,7 14 0 0,0
24.02.2018 20:00:00 -3,8 -10,2 -4,0 -0,1 0,6 4,0 14 8 40 21 O 1019,5 13 0 0,0
24.02.2018 19:00:00 -3,4 -10,0 -3,6 -0,1 0,6 4,0 12 7 45 25 O 1019,1 13 0 0,0
24.02.2018 18:00:00 -2,8 -9,6 -3,1 0,0 0,6 4,0 15 8 40 21 ONO 1018,3 14 0 0,0
24.02.2018 17:00:00 -2,3 -8,8 -2,5 0,0 0,6 4,0 13 7 27 15 O 1017,6 11 0 0,0
24.02.2018 16:00:00 -2,2 -7,4 -1,9 0,0 0,6 4,0 13 7 36 20 O 1017,3 9 0 0,0
24.02.2018 15:00:00 -2,9 -7,4 -2,3 0,0 0,6 4,0 17 9 37 20 O 1017,4 7 0 0,0
24.02.2018 14:00:00 -3,2 -6,7 -2,6 -0,1 0,6 4,0 15 8 35 19 O 1017,5 6 0 0,0
24.02.2018 13:00:00 -3,4 -6,8 -2,8 -0,1 0,7 4,0 13 7 30 16 ONO 1017,5 6 0 0,0
24.02.2018 12:00:00 -3,8 -6,9 -3,0 -0,1 0,7 4,0 10 6 29 16 O 1017,9 6 0 0,0
24.02.2018 11:00:00 -4,1 -6,9 -3,5 -0,1 0,7 4,0 13 7 27 15 O 1017,9 6 0 0,0
24.02.2018 10:00:00 -4,6 -7,0 -4,2 -0,1 0,7 4,0 14 7 26 14 ONO 1017,8 4,5 0 0,0
24.02.2018 09:00:00 -4,6 -6,8 -4,3 -0,1 0,7 4,0 11 6 28 15 ONO 1017,6 4,2 0 0,0
24.02.2018 08:00:00 -4,3 -6,6 -4,2 -0,1 0,7 4,0 11 6 29 16 O 1017,2 4,9 0 0,0
24.02.2018 07:00:00 -4,3 -6,6 -4,3 -0,1 0,7 4,0 12 6 25 14 O 1016,6 5 0 0,0
24.02.2018 06:00:00 -4,2 -6,5 -4,2 -0,1 0,7 4,0 10 5 25 13 ONO 1016,6 6 0 0,0
24.02.2018 05:00:00 -4,1 -6,7 -4,1 0,0 0,7 4,0 12 7 26 14 ONO 1016,6 6 0 0,0
24.02.2018 04:00:00 -4,1 -6,6 -4,1 0,0 0,7 4,0 14 8 33 18 O 1016,2 6 0 0,0
24.02.2018 03:00:00 -4,1 -6,9 -4,1 0,0 0,7 4,0 14 8 28 15 O 1016,5 6 0 0,0
24.02.2018 02:00:00 -4,0 -6,5 -4,0 0,0 0,7 4,0 9 5 24 13 O 1016,8 6 0 0,0
24.02.2018 01:00:00 -4,0 -6,5 -4,0 0,0 0,7 4,0 12 7 28 15 ONO 1016,8 6 0 0,0
24.02.2018 00:00:00 -4,0 -6,5 -4,0 0,0 0,8 4,0 12 7 26 14 O 1016,3 6 0 0,0
23.02.2018 23:00:00 -4,0 -6,4 -4,0 0,0 0,8 4,0 11 6 27 15 O 1016,4 6 0 0,0
23.02.2018 22:00:00 -4,0 -6,6 -4,0 0,1 0,8 4,0 12 6 29 15 O 1016,6 6 0 0,0
23.02.2018 21:00:00 -4,1 -6,6 -4,1 0,1 0,8 4,0 14 8 32 18 O 1016,7 7 0 0,0
23.02.2018 20:00:00 -4,3 -6,8 -4,3 0,1 0,8 4,0 16 8 28 15 O 1016,8 6 0 0,0
23.02.2018 19:00:00 -4,4 -6,6 -4,3 0,1 0,8 4,0 8 4 19 11 ONO 1016,5 4,5 0 0,0
23.02.2018 18:00:00 -4,4 -6,8 -4,4 0,1 0,8 4,0 11 6 23 13 O 1016,5 5 0 0,0
23.02.2018 17:00:00 -4,4 -6,9 -4,3 0,1 0,8 4,0 11 6 26 14 O 1016,0 5 0 0,0
23.02.2018 16:00:00 -4,3 -6,9 -4,1 0,1 0,8 4,0 14 7 25 14 O 1015,8 6 0 0,0
23.02.2018 15:00:00 -4,2 -6,9 -3,9 0,1 0,8 4,0 10 5 27 15 ONO 1015,8 4,9 0 0,0
23.02.2018 14:00:00 -4,3 -7,0 -3,9 0,1 0,8 4,0 15 8 29 16 O 1016,0 5 0 0,0
23.02.2018 13:00:00 -4,3 -6,9 -3,8 0,1 0,8 4,0 12 6 25 14 ONO 1015,8 5 0 0,0
23.02.2018 12:00:00 -4,2 -7,0 -3,3 0,1 0,8 4,0 9 5 23 13 ONO 1015,5 4,8 0 0,0
23.02.2018 11:00:00 -4,5 -6,8 -4,0 0,1 0,8 4,0 11 6 22 12 ONO 1015,5 4,5 0 0,0
23.02.2018 10:00:00 -4,8 -7,0 -4,6 0,1 0,8 4,0 9 5 23 13 ONO 1015,6 5 0 0,0
23.02.2018 09:00:00 -4,9 -7,1 -4,8 0,1 0,8 4,0 11 6 26 14 ONO 1015,3 4,8 0 0,0
23.02.2018 08:00:00 -4,9 -7,1 -4,8 0,1 0,8 4,0 11 6 22 12 O 1015,3 5 0 0,0
23.02.2018 07:00:00 -4,9 -6,8 -4,8 0,2 0,8 4,0 10 5 25 13 ONO 1015,0 4,4 0 0,0
23.02.2018 06:00:00 -4,8 -6,9 -4,7 0,2 0,8 4,0 9 5 21 12 ONO 1014,8 4,8 0 0,0
23.02.2018 05:00:00 -4,7 -6,8 -4,6 0,2 0,8 4,0 8 4 26 14 O 1014,9 4,9 0 0,0
23.02.2018 04:00:00 -4,6 -6,9 -4,5 0,2 0,8 4,0 10 5 24 13 ONO 1015,2 5 0 0,0
23.02.2018 03:00:00 -4,5 -6,8 -4,5 0,2 0,9 4,0 9 5 24 13 ONO 1015,4 5 0 0,0
23.02.2018 02:00:00 -4,4 -6,4 -4,3 0,2 0,9 4,0 9 5 21 11 ONO 1015,7 5 0 0,0
23.02.2018 01:00:00 -4,5 -6,8 -4,4 0,2 0,9 4,0 11 6 22 12 O 1015,9 5 0 0,0
23.02.2018 00:00:00 -4,4 -6,8 -4,4 0,2 0,9 4,0 12 7 24 13 O 1015,9 4,9 0 0,0
22.02.2018 23:00:00 -4,4 -6,7 -4,4 0,2 0,9 4,0 12 7 28 15 O 1016,1 5 0 0,0
22.02.2018 22:00:00 -4,3 -6,7 -4,4 0,2 0,9 4,0 11 6 29 16 O 1016,0 5 0 0,0
22.02.2018 21:00:00 -4,3 -6,8 -4,4 0,2 0,9 4,0 12 6 32 17 O 1016,0 6 0 0,0
22.02.2018 20:00:00 -4,3 -6,7 -4,3 0,2 0,9 4,0 14 8 41 22 O 1016,1 6 0 0,0
22.02.2018 19:00:00 -4,1 -7,0 -4,2 0,2 0,9 4,0 9 5 24 13 ONO 1016,1 7 0 0,0
22.02.2018 18:00:00 -3,9 -7,0 -4,1 0,2 0,9 4,0 11 6 27 14 ONO 1015,5 6 0 0,0
22.02.2018 17:00:00 -3,7 -7,1 -3,9 0,2 0,9 4,1 11 6 30 16 ONO 1015,2 7 0 0,0
22.02.2018 16:00:00 -3,7 -7,3 -3,8 0,2 0,9 4,1 13 7 29 16 O 1014,9 7 0 0,0
22.02.2018 15:00:00 -3,7 -7,3 -3,6 0,2 0,9 4,1 14 7 35 19 ONO 1014,9 7 0 0,0
22.02.2018 14:00:00 -3,7 -6,9 -3,7 0,2 0,9 4,1 11 6 38 20 ONO 1015,1 6 0 0,0
22.02.2018 13:00:00 -3,8 -7,1 -3,7 0,2 0,9 4,1 12 7 31 17 ONO 1015,1 6 0 0,0
22.02.2018 12:00:00 -3,9 -7,2 -4,0 0,2 0,9 4,1 14 7 30 16 O 1015,2 7 0 0,0
22.02.2018 11:00:00 -4,0 -7,3 -4,1 0,2 0,9 4,1 14 8 36 19 O 1015,2 5 0 0,0
22.02.2018 10:00:00 -4,3 -7,5 -4,5 0,2 0,9 4,1 17 9 42 23 O 1015,3 5 0 0,0
22.02.2018 09:00:00 -4,3 -7,4 -4,6 0,2 0,9 4,1 18 10 43 23 O 1015,4 6 0 0,0
22.02.2018 08:00:00 -4,2 -7,1 -4,4 0,2 0,9 4,1 14 7 29 15 ONO 1015,3 7 0 0,0
22.02.2018 07:00:00 -4,2 -6,4 -4,2 0,2 0,9 4,1 10 6 21 11 NO 1015,1 4,8 0 0,0
22.02.2018 06:00:00 -4,6 -6,8 -4,1 0,2 1,0 4,1 9 5 25 13 NNO 1015,2 4,3 0 0,0
22.02.2018 05:00:00 -3,8 -6,3 -4,0 0,2 1,0 4,1 6 4 23 13 ONO 1015,1 4,5 0 0,0
22.02.2018 04:00:00 -3,4 -6,4 -3,8 0,3 1,0 4,1 11 6 31 17 ONO 1015,6 6 0 0,0
22.02.2018 03:00:00 -3,2 -6,2 -3,7 0,3 1,0 4,1 10 5 31 17 ONO 1015,9 6 0 0,0
22.02.2018 02:00:00 -3,2 -6,5 -3,8 0,3 1,0 4,1 10 5 21 11 ONO 1016,5 6 0 0,0
22.02.2018 01:00:00 -2,8 -6,0 -3,5 0,3 1,0 4,1 10 5 27 15 ONO 1016,8 6 0 0,0
22.02.2018 00:00:00 -2,8 -5,3 -3,2 0,3 1,0 4,1 9 5 24 13 NO 1017,3 4,0 0 0,0
21.02.2018 23:00:00 -3,0 -5,2 -3,4 0,3 1,0 4,1 7 4 18 10 ONO 1017,8 3,5 0 0,0
21.02.2018 22:00:00 -3,2 -5,3 -4,2 0,3 1,1 4,1 6 4 22 12 O 1018,4 3,2 0 0,0
21.02.2018 21:00:00 -3,2 -5,2 -4,1 0,4 1,1 4,1 6 3 16 9 ONO 1018,8 2,9 0 0,0
21.02.2018 20:00:00 -3,1 -5,5 -3,9 0,4 1,1 4,1 7 4 18 10 ONO 1019,1 3,9 0 0,0
21.02.2018 19:00:00 -3,0 -5,5 -3,4 0,4 1,1 4,1 9 5 20 11 NO 1019,1 4,0 0 0,0
21.02.2018 18:00:00 -3,2 -5,7 -3,4 0,5 1,1 4,1 10 5 22 12 NO 1018,9 3,5 0 0,0
21.02.2018 17:00:00 -3,0 -5,5 -2,9 0,6 1,1 4,1 9 5 22 12 NNO 1018,8 3,9 0 0,0
21.02.2018 16:00:00 -2,2 -5,4 -2,1 0,7 1,1 4,1 11 6 23 12 NNO 1018,3 6 15 0,0
21.02.2018 15:00:00 -1,7 -5,8 -1,5 0,6 1,1 4,1 9 5 24 13 NO 1018,2 8 20 0,0
21.02.2018 14:00:00 -1,4 -6,0 -0,7 0,6 1,0 4,1 12 6 26 14 NO 1018,2 8 32 0,0
21.02.2018 13:00:00 -1,7 -5,6 -0,3 0,5 1,0 4,1 11 6 23 12 NO 1018,4 9 1 0,0
21.02.2018 12:00:00 -1,9 -5,6 -1,1 0,5 1,0 4,1 10 5 23 12 ONO 1018,7 9 3 0,0
21.02.2018 11:00:00 -2,2 -5,6 -1,1 0,5 1,0 4,1 9 5 19 10 ONO 1018,9 6 1 0,0
21.02.2018 10:00:00 -2,8 -5,5 -1,6 0,5 1,0 4,1 7 4 15 8 ONO 1019,4 3,9 0 0,0
21.02.2018 09:00:00 -3,4 -5,3 -3,0 0,4 1,0 4,1 6 4 16 8 ONO 1019,5 3,9 0 0,1
21.02.2018 08:00:00 -3,8 -5,5 -3,6 0,4 1,0 4,1 5 3 16 9 ONO 1019,5 3,7 0 0,0
21.02.2018 07:00:00 -4,1 -5,6 -3,9 0,4 1,0 4,1 9 5 17 9 NO 1019,5 2,9 0 0,1
21.02.2018 06:00:00 -3,9 -5,8 -3,4 0,4 1,0 4,1 8 4 16 9 NNO 1019,2 4,0 0 0,0
21.02.2018 05:00:00 -3,8 -5,5 -3,2 0,4 1,0 4,1 4 2 11 6 NNO 1018,8 4,1 0 0,0
21.02.2018 04:00:00 -4,0 -5,8 -3,0 0,4 1,0 4,1 5 3 10 6 N 1018,8 5 0 0,0
21.02.2018 03:00:00 -4,0 -6,2 -4,1 0,4 1,0 4,1 5 3 12 7 NO 1018,8 5 0 0,0
21.02.2018 02:00:00 -4,0 -6,1 -4,3 0,4 1,0 4,1 7 4 16 9 ONO 1018,6 7 0 0,0
21.02.2018 01:00:00 -4,5 -6,4 -4,5 0,4 1,0 4,1 5 3 11 6 ONO 1018,9 4,4 0 0,0
21.02.2018 00:00:00 -4,5 -6,0 -4,2 0,4 1,0 4,1 0 0 8 4 N 1018,4 2,6 0 0,0
20.02.2018 23:00:00 -4,1 -5,5 -3,0 0,4 1,0 4,1 4 2 10 5 N 1018,2 2,9 0 0,1
20.02.2018 22:00:00 -3,8 -5,3 -3,2 0,4 1,0 4,1 3 2 8 5 N 1018,1 2,3 0 0,1
20.02.2018 21:00:00 -3,7 -5,0 -2,7 0,4 1,1 4,1 4 2 8 4 NNW 1018,0 2,1 0 0,2
20.02.2018 20:00:00 -3,6 -4,9 -3,1 0,4 1,1 4,1 5 3 8 5 N 1017,6 2,0 0 0,3
20.02.2018 19:00:00 -3,4 -4,8 -3,2 0,4 1,1 4,1 5 3 8 4 N 1017,3 1,9 0 0,2
20.02.2018 18:00:00 -3,3 -5,0 -3,3 0,5 1,1 4,1 6 3 9 5 N 1017,1 2,1 0 0,2
20.02.2018 17:00:00 -3,1 -5,1 -2,7 0,5 1,1 4,1 7 4 9 5 N 1016,7 2,1 0 0,2
20.02.2018 16:00:00 -2,8 -5,5 -2,4 0,5 1,1 4,1 6 3 11 6 N 1016,2 4,3 0 0,1
20.02.2018 15:00:00 -2,6 -5,6 -2,4 0,5 1,1 4,1 7 4 13 7 ONO 1015,9 3,6 0 0,1
20.02.2018 14:00:00 -2,5 -5,2 -2,1 0,5 1,0 4,1 7 4 14 7 NO 1015,8 4,3 0 0,0
20.02.2018 13:00:00 -1,8 -4,9 -0,3 0,5 1,0 4,1 7 4 11 6 N 1015,6 4,7 0 0,0
20.02.2018 12:00:00 -2,1 -5,3 -1,0 0,4 1,0 4,1 6 4 10 6 N 1016,1 3,7 0 0,1
20.02.2018 11:00:00 -2,3 -5,0 -1,6 0,4 1,0 4,1 5 3 8 5 N 1016,2 4,4 0 0,0
20.02.2018 10:00:00 -2,0 -4,7 -1,3 0,3 1,0 4,1 3 2 9 5 N 1016,1 3,9 0 0,0
20.02.2018 09:00:00 -2,6 -4,7 -2,0 0,3 1,0 4,1 4 2 8 4 N 1016,1 3,9 0 0,0
20.02.2018 08:00:00 -2,7 -4,4 -2,9 0,3 1,0 4,1 3 2 8 4 N 1016,1 4,4 0 0,0
20.02.2018 07:00:00 -2,7 -4,3 -2,9 0,3 1,0 4,1 3 2 8 4 ONO 1016,0 4,0 0 0,0
20.02.2018 06:00:00 -2,6 -4,5 -2,7 0,3 1,0 4,1 5 3 9 5 NO 1015,9 4,2 0 0,0
20.02.2018 05:00:00 -2,4 -3,7 -2,4 0,3 1,1 4,1 3 2 6 4 N 1015,8 2,9 0 0,0
20.02.2018 04:00:00 -2,4 -3,8 -2,6 0,3 1,1 4,1 3 2 7 4 N 1015,9 3,2 0 0,0
20.02.2018 03:00:00 -2,4 -3,8 -2,4 0,3 1,1 4,1 5 3 8 5 NNW 1016,1 2,9 0 0,0
20.02.2018 02:00:00 -2,3 -3,6 -2,2 0,3 1,1 4,1 4 2 8 4 NNW 1016,3 3,5 0 0,0
20.02.2018 01:00:00 -2,2 -3,5 -2,5 0,3 1,1 4,1 5 3 9 5 NNW 1016,8 3,0 0 0,0
20.02.2018 00:00:00 -2,1 -3,6 -2,5 0,4 1,1 4,1 0 0 5 3 N 1017,0 3,2 0 0,0
19.02.2018 23:00:00 -2,1 -3,5 -2,6 0,4 1,1 4,1 1 1 6 3 NW 1017,2 3,9 0 0,0
19.02.2018 22:00:00 -2,0 -3,8 -2,3 0,4 1,2 4,1 3 2 8 4 NNW 1017,6 4,8 0 0,0
19.02.2018 21:00:00 -1,8 -3,9 -2,3 0,4 1,2 4,1 5 3 7 4 NW 1017,6 4,9 0 0,0
19.02.2018 20:00:00 -1,8 -3,9 -2,2 0,4 1,2 4,1 3 2 7 4 N 1017,9 5 0 0,0
19.02.2018 19:00:00 -1,6 -3,9 -2,1 0,5 1,2 4,1 5 3 6 4 NW 1018,2 4,9 0 0,0
19.02.2018 18:00:00 -1,6 -4,1 -2,0 0,5 1,2 4,1 3 2 9 5 N 1018,1 6 0 0,0
19.02.2018 17:00:00 -1,3 -3,7 -1,3 0,7 1,2 4,1 4 2 9 5 NNW 1018,1 6 0 0,0
19.02.2018 16:00:00 -1,4 -3,8 -1,0 0,8 1,2 4,1 5 3 11 6 NW 1018,5 5 0 0,0
19.02.2018 15:00:00 -1,0 -3,2 -0,5 1,0 1,2 4,1 8 4 13 7 NW 1018,7 5 0 0,0
19.02.2018 14:00:00 -1,0 -3,5 -0,3 1,0 1,2 4,1 8 5 13 7 NNW 1019,1 4,9 0 0,0
19.02.2018 13:00:00 -0,4 -3,7 -0,1 0,9 1,2 4,1 4 2 10 5 NNW 1019,3 8 0 0,0
19.02.2018 12:00:00 -0,4 -5,0 -0,5 0,7 1,2 4,1 4 2 10 5 Z 1019,8 11 0 0,0
19.02.2018 11:00:00 -0,5 -4,5 -0,3 0,7 1,1 4,1 5 3 10 5 Z 1020,0 11 0 0,0
19.02.2018 10:00:00 -1,1 -4,7 -1,2 0,6 1,1 4,1 5 3 10 5 Z 1020,5 9 0 0,0
19.02.2018 09:00:00 -1,4 -4,7 -1,9 0,5 1,1 4,1 6 3 8 5 ZZO 1020,7 9 0 0,0
19.02.2018 08:00:00 -1,9 -3,8 -2,3 0,5 1,1 4,1 0 0 6 3 N 1021,1 7 0 0,0
19.02.2018 07:00:00 -2,1 -4,1 -2,6 0,5 1,1 4,1 5 3 9 5 O 1021,2 7 0 0,0
19.02.2018 06:00:00 -2,1 -3,9 -2,5 0,5 1,2 4,1 0 0 5 3 N 1021,5 7 0 0,0
19.02.2018 05:00:00 -2,1 -3,9 -2,5 0,5 1,2 4,1 2 1 7 4 NNO 1022,0 8 0 0,0
19.02.2018 04:00:00 -2,0 -4,3 -2,5 0,5 1,2 4,1 4 2 7 4 NO 1022,2 8 0 0,0
19.02.2018 03:00:00 -2,0 -4,0 -2,6 0,5 1,2 4,1 3 2 11 6 O 1022,5 8 0 0,0
19.02.2018 02:00:00 -1,9 -4,0 -2,5 0,5 1,2 4,1 7 4 13 7 NO 1022,7 6 0 0,0

tt = temperatuur
td = dauwpunt
tt 5cm = temperatuur 5cm
tt -5cm = temperatuur -5cm
tt -20cm = temperatuur -20cm
tt -100cm = temperatuur -100cm
ff = windsnelheid
fx = windstoten
dd = windrichting
ppp = luchtdruk
vv = zicht
sd = Zonneschijnduur
rr = neerslag

Weerstations in de omgeving